Weather History for J6-a Sea, Netherlands

Change the Weather History Date:

Friday, January 24, 2014

  Actual Average Record
Temperature  
Mean Temperature 42 °F -  
Max Temperature 45 °F - - ()
Min Temperature 39 °F - - ()
Degree Days  
Heating Degree Days 23    
Moisture  
Dew Point 37 °F    
Average Humidity 74    
Maximum Humidity 92    
Minimum Humidity 57    
Precipitation  
Precipitation 0.00 in - - ()
Sea Level Pressure  
Sea Level Pressure 29.92 in    
Wind  
Wind Speed 17 mph ()    
Max Wind Speed 32 mph    
Max Gust Speed -    
Visibility 8.8 miles    
Events Rain    
T = Trace of Precipitation, MM = Missing Value Source: Averaged Metar Reports

Daily Weather History Graph

Daily Weather History Graph

Search for Another Location

Airport:

Trip Planner

Search our weather history database for the weather conditions in past years. The results will help you decide how hot, cold, wet, or windy it might be!

Date:

Astronomy

Jan. 24, 2014 Rise Set
Actual Time 8:47 AM CET 5:13 PM CET
Civil Twilight 8:07 AM CET 5:53 PM CET
Nautical Twilight 7:24 AM CET 6:37 PM CET
Astronomical Twilight 6:42 AM CET 7:18 PM CET
Moon 1:42 AM CET (1/24) 11:35 AM CET (1/24)
Length of Visible Light 9h 46m
Length of Day
8h 26m
Waning Gibbous, 47% of the Moon is Illuminated
Jan 24
Waning Gibbous
Jan 30
New
Feb 6
First Quarter
Feb 15
Full
Feb 22
Last Quarter

Hourly Weather History & Observations

Time (CET) Temp. Windchill Dew Point Humidity Pressure Visibility Wind Dir Wind Speed Gust Speed Precip Events Conditions
12:00 AM 40 °F - 38 °F 92% 29.78 in 5 mi WNW 26.8 mph - - Rain Light Rain
12:25 AM 41.0 °F 29.7 °F 37.4 °F 87% 29.77 in 6.2 mi WNW 31.1 mph - N/A Rain Light Rain
12:55 AM 41.0 °F 29.5 °F 37.4 °F 87% 29.77 in 6.2 mi WNW 32.2 mph - N/A   Mostly Cloudy
1:00 AM 42 °F - 38 °F 79% 29.80 in 22 mi WNW 24.6 mph - -   Unknown Precipitation
1:25 AM 42.8 °F 32.7 °F 37.4 °F 81% 29.80 in 6.2 mi WNW 27.6 mph - N/A   Mostly Cloudy
1:55 AM 42.8 °F 32.3 °F 37.4 °F 81% 29.80 in 6.2 mi WNW 29.9 mph - N/A   Mostly Cloudy
2:00 AM 43 °F - 38 °F 76% 29.81 in 14 mi WNW 24.6 mph - -   Unknown Precipitation
2:25 AM 42.8 °F 32.1 °F 37.4 °F 81% 29.80 in 6.2 mi WNW 31.1 mph - N/A   Mostly Cloudy
2:55 AM 42.8 °F 32.3 °F 39.2 °F 87% 29.80 in 6.2 mi WNW 29.9 mph - N/A   Mostly Cloudy
3:00 AM 44 °F - 38 °F 72% 29.83 in 11 mi WNW 24.6 mph - -   Partly Cloudy
3:25 AM 42.8 °F 32.7 °F 37.4 °F 81% 29.83 in 6.2 mi WNW 27.6 mph - N/A Rain Light Rain
3:55 AM 42.8 °F 32.7 °F 37.4 °F 81% 29.83 in 6.2 mi WNW 27.6 mph - N/A   Mostly Cloudy
4:00 AM 44 °F - 36 °F 66% 29.84 in 14 mi WNW 22.4 mph - - Rain Rain
4:25 AM 44.6 °F 35.1 °F 37.4 °F 76% 29.83 in 6.2 mi WNW 27.6 mph - N/A   Partly Cloudy
4:55 AM 44.6 °F 35.5 °F 37.4 °F 76% 29.83 in 6.2 mi NW 25.3 mph - N/A   Scattered Clouds
5:00 AM 43 °F - 37 °F 72% 29.85 in 16 mi NW 20.1 mph - -   Partly Cloudy
5:25 AM 42.8 °F 34.0 °F 37.4 °F 81% 29.83 in 6.2 mi NW 20.7 mph - N/A   Scattered Clouds
5:55 AM 44.6 °F 36.6 °F 37.4 °F 76% 29.86 in 6.2 mi WNW 19.6 mph - N/A   Unknown
6:00 AM 44 °F - 37 °F 68% 29.88 in 14 mi NW 15.7 mph - -   Partly Cloudy
6:25 AM 44.6 °F 36.9 °F 37.4 °F 76% 29.86 in 6.2 mi WNW 18.4 mph - N/A   Partly Cloudy
6:55 AM 44.6 °F 37.2 °F 37.4 °F 76% 29.86 in 6.2 mi WNW 17.3 mph - N/A   Partly Cloudy
7:00 AM 44 °F - 37 °F 67% 29.89 in 16 mi WNW 13.4 mph - -   Partly Cloudy
7:25 AM 42.8 °F 35.4 °F 35.6 °F 76% 29.86 in 6.2 mi WNW 15.0 mph - N/A   Partly Cloudy
7:55 AM 42.8 °F 35.8 °F 35.6 °F 76% 29.89 in 6.2 mi WNW 13.8 mph - N/A   Unknown
8:00 AM 44 °F - 36 °F 65% 29.91 in 16 mi WNW 11.2 mph - -  
8:25 AM 42.8 °F 35.8 °F 35.6 °F 76% 29.89 in 6.2 mi WNW 13.8 mph - N/A   Partly Cloudy
8:55 AM 42.8 °F 37.0 °F 35.6 °F 76% 29.89 in 6.2 mi WNW 10.4 mph - N/A   Partly Cloudy
9:00 AM 44 °F - 36 °F 63% 29.93 in 19 mi WNW 8.9 mph - -   Partly Cloudy
9:25 AM 42.8 °F 37.5 °F 35.6 °F 76% 29.92 in 6.2 mi WNW 9.2 mph - N/A   Partly Cloudy
9:55 AM 44.6 °F 40.7 °F 35.6 °F 71% 29.92 in 6.2 mi West 6.9 mph - N/A   Scattered Clouds
10:00 AM 44 °F - 36 °F 64% 29.95 in 22 mi West 4.5 mph - -   Partly Cloudy
10:25 AM 42.8 °F 39.3 °F 35.6 °F 76% 29.92 in 6.2 mi West 5.8 mph - N/A   Mostly Cloudy
10:55 AM 44.6 °F 41.4 °F 33.8 °F 66% 29.95 in 6.2 mi West 5.8 mph - N/A   Overcast
11:00 AM 44 °F - 34 °F 58% 29.96 in 25 mi West 4.5 mph - -   Overcast
11:25 AM 44.6 °F 43.1 °F 33.8 °F 66% 29.95 in 6.2 mi WSW 3.5 mph - N/A   Overcast
11:55 AM 44.6 °F 42.2 °F 33.8 °F 66% 29.95 in 6.2 mi SSW 4.6 mph - N/A   Overcast
12:00 PM 44 °F - 34 °F 57% 29.97 in 28 mi SW 4.5 mph - -   Partly Cloudy
12:25 PM 44.6 °F 42.2 °F 33.8 °F 66% 29.95 in 6.2 mi SW 4.6 mph - N/A   Mostly Cloudy
12:55 PM 44.6 °F 42.2 °F 35.6 °F 71% 29.95 in 6.2 mi SSW 4.6 mph - N/A   Partly Cloudy
1:00 PM 44 °F - 36 °F 65% 29.97 in 19 mi SW 4.5 mph - -   Partly Cloudy
1:25 PM 44.6 °F 41.4 °F 35.6 °F 71% 29.95 in 6.2 mi SW 5.8 mph - N/A   Unknown
1:55 PM 44.6 °F 43.1 °F 35.6 °F 71% 29.95 in 6.2 mi South 3.5 mph - N/A   Unknown
2:00 PM 45 °F - 36 °F 61% 29.96 in 19 mi SSE 4.5 mph - -  
2:25 PM 44.6 °F 41.4 °F 35.6 °F 71% 29.95 in 6.2 mi SSE 5.8 mph - N/A   Unknown
2:55 PM 44.6 °F 41.4 °F 35.6 °F 71% 29.95 in 6.2 mi South 5.8 mph - N/A   Unknown
3:00 PM 44 °F - 36 °F 64% 29.97 in 16 mi South 4.5 mph - -  
3:25 PM 42.8 °F 38.6 °F 37.4 °F 81% 29.98 in 6.2 mi South 6.9 mph - N/A   Unknown
3:55 PM 42.8 °F 38.0 °F 37.4 °F 81% 29.98 in 6.2 mi South 8.1 mph - N/A   Unknown
4:00 PM 43 °F - 36 °F 70% 29.98 in 16 mi SSE 6.7 mph - -   Scattered Clouds
4:25 PM 42.8 °F 37.5 °F 37.4 °F 81% 29.95 in 6.2 mi SSE 9.2 mph - N/A   Partly Cloudy
4:55 PM 42.8 °F 37.5 °F 35.6 °F 76% 29.98 in 6.2 mi SE 9.2 mph - N/A   Scattered Clouds
5:00 PM 43 °F - 36 °F 69% 29.99 in 19 mi SE 6.7 mph - -   Scattered Clouds
5:25 PM 42.8 °F 37.5 °F 37.4 °F 81% 29.98 in 6.2 mi SE 9.2 mph - N/A   Partly Cloudy
5:55 PM 42.8 °F 36.6 °F 35.6 °F 76% 29.98 in 6.2 mi ESE 11.5 mph - N/A   Scattered Clouds
6:00 PM 43 °F - 37 °F 71% 30.00 in 17 mi SE 8.9 mph - -   Overcast
6:25 PM 42.8 °F 36.2 °F 37.4 °F 81% 29.98 in 6.2 mi SE 12.7 mph - N/A   Mostly Cloudy
6:55 PM 42.8 °F 35.4 °F 37.4 °F 81% 29.98 in 6.2 mi SE 15.0 mph - N/A   Mostly Cloudy
7:00 PM 43 °F - 38 °F 74% 29.99 in 17 mi SE 13.4 mph - -   Partly Cloudy
7:25 PM 42.8 °F 35.4 °F 37.4 °F 81% 29.98 in 6.2 mi ESE 15.0 mph - N/A   Mostly Cloudy
7:55 PM 44.6 °F 37.2 °F 37.4 °F 76% 29.95 in 6.2 mi SE 17.3 mph - N/A   Mostly Cloudy
8:00 PM 44 °F - 39 °F 76% 29.98 in 17 mi SE 15.7 mph - -   Scattered Clouds
8:25 PM 44.6 °F 37.4 °F 39.2 °F 81% 29.95 in 6.2 mi ESE 16.1 mph - N/A   Partly Cloudy
8:55 PM 44.6 °F 37.2 °F 37.4 °F 76% 29.98 in 6.2 mi SE 17.3 mph - N/A   Unknown
9:00 PM 44 °F - 38 °F 73% 29.99 in 19 mi SE 13.4 mph - -   Scattered Clouds
9:25 PM 44.6 °F 36.9 °F 37.4 °F 76% 29.98 in 6.2 mi SSE 18.4 mph - N/A   Scattered Clouds
9:55 PM 44.6 °F 36.4 °F 37.4 °F 76% 29.98 in 6.2 mi SSE 20.7 mph - N/A   Mostly Cloudy
10:00 PM 44 °F - 38 °F 71% 29.99 in 22 mi SSE 17.9 mph - -   Scattered Clouds
10:25 PM 44.6 °F 35.9 °F 37.4 °F 76% 29.98 in 6.2 mi SSE 23.0 mph - N/A   Partly Cloudy
10:55 PM 44.6 °F 35.9 °F 37.4 °F 76% 29.95 in 6.2 mi SSE 23.0 mph - N/A   Partly Cloudy
11:00 PM 45 °F - 37 °F 64% 29.98 in 22 mi SSE 20.1 mph - -   Scattered Clouds
11:25 PM 44.6 °F 35.7 °F 35.6 °F 71% 29.95 in 6.2 mi SSE 24.2 mph - N/A   Partly Cloudy
11:55 PM 44.6 °F 35.5 °F 35.6 °F 71% 29.98 in 6.2 mi SSE 25.3 mph - N/A   Unknown